Погода в Дарганате

Погода в Дарганате : погода сейчас, прогноз погоды и архив. Всё, что Вы хотите узнать о погоде в Дарганате!

Хотите узнать прогноз погоды в Дарганате? Тогда Вам сюда: Погода в Дарганате

Поиск расширенной информации на нашем сайте:

Другие новости

Новости СМИ2

Главная страница сайта

Новости сайта

03.07.2017

Напоминаем, что на нашем специализированном сайте Метеоцентр.Азия вы можете получить высокодетализированные автоматические прогнозы погоды по пунктам России, СНГ и мира в авиационном формате (включающие направление и скорость ветра, видимость, явления погоды, количество и форму облачности, нижнюю и верхнюю границу облачности).


Погода в Дарганате - сегодня

Время (UTC), дата Ветер
(°,м/с) 
Видим.   Явления Облачность Т
(°С)
Тd
(°С)
f(%) Тe
(°С)
Pmin
(гПа)
dP
(гПа)
Po
(мм)
O2
(г/м3)
Тmin Tmax R s Состояние
почвы
21 23.05.18 030 (СВ) 20000 м    ясно 
+18 +5 42 +19  1019.6  -0.1  752  284           
00 24.05.18 030 (СВ) 20000 м    ясно 
+14.7 +5.5 54 +15  1019.4  -0.4  752  287           
03 24.05.18 040 (СВ) 20000 м    ясно 
+21.4 +5.9 36 +21  1019.8  0.7  752  280           
06 24.05.18 050 (СВ) 20000 м    ясно 
+26.8 +5.1 25 +27  1019.8  0.3  753  275  +14.2         
09 24.05.18 080 (В) 20000 м    ясно 
+30.2 +3.6 18 +30  1017.2  -2.3  751  272           
12 24.05.18 050 (СВ) 20000 м    ясно 
+31.4 +2.1 15 +31  1014.9  -2.3  749  270           
15 24.05.18 040 (СВ) 20000 м    ясно 
+26.6 +1.3 19 +27  1014.5  -0.6  749  275    +31.9       
18 24.05.18 040 (СВ) 20000 м    ясно 
+21.2 +0 24 +21  1015  0.2  749  280    +31.9       
21 24.05.18 тихо ()   20000 м    ясно 
+14.7 +0.4 38 +15  1014.1  -1.2  748  286           
00 25.05.18 310 (СЗ) 20000 м    ясно 
+12.2 +0.4 44 +13  1013.8  -0.5  748  288           
03 25.05.18 //0 (С) //  н/о    н/о 
                 
06 25.05.18 060 (СВ) 20000 м    ясно 
+28.9 +2.9 19 +29  1012.2  -1.2  747  272  +11.2         
09 25.05.18 080 (В) 20000 м    ясно 
+33.9 +4.1 15 +34  1009.9  -2  746  267           
12 25.05.18 080 (В) 20000 м    ясно 
+36.3 +5.1 15 +36  1007.7  -1.9  744  264           
15 25.05.18 070 (В) 20000 м    ясно 
+32.5 +1.9 14 +33  1007.8  -0.1  744  268    +37.6       
18 25.05.18 070 (В) 20000 м    ясно 
+25.6 +1.1 20 +26  1009.1  0.8  745  274    +37.6       
21 25.05.18 310 (СЗ) 20000 м    ясно 
+18.5 +2.7 35 +20  1008.7  -0.7  744  280           
00 26.05.18 020 (С) 20000 м    ясно 
+13.8 +9.5 75 +16  1008.2  -0.7  744  283           
03 26.05.18 090 (В) 20000 м    ясно 
+22.4 +7.4 38 +22  1008  0.2  744  276           
06 26.05.18 130 (ЮВ) 20000 м    ясно 
+33 +9.8 24 +34  1007.4  -0.1  744  266  +13.6         
09 26.05.18 110 (В) 20000 м    ясно 
+35.2 +7.4 18 +35  1005.7  -1.5  743  264           
12 26.05.18 100 (В) 20000 м    3/0 верхняя 
[Ci ing]
+36.2 +7.6 17 +36  1003.7  -1.9  741  262           
15 26.05.18 110 (В) 20000 м    3/0 верхняя 
[Ci ing]
+30 +16 43 +41  1003.2  -0.7  741  265    +36.8       
18 26.05.18 140 (ЮВ) 20000 м    3/0 средняя 
[Ac cast]
+22.9 +10.6 46 +25  1004  0.3  741  273    +36.8       
21 26.05.18 200 (Ю) 20000 м    4/0 средняя 
[Ac und]
+22.6 +0.4 23 +23  1003.6  -0.4  740  275           
Время (UTC), дата Ветер
(°,м/с) 
Видим.   Явления Облачность Т
(°С)
Тd
(°С)
f(%) Тe
(°С)
Pmin
(гПа)
dP
(гПа)
Po
(мм)
O2
(г/м3)
Тmin Tmax R s Состояние
почвы

Для получения пояснительной информации подведите курсор к названию столбца.

ПОГОДА в Дарганате - архив

Всё, что Вы хотите узнать о погоде в Дарганате - удобно и подробно!

Выберите нужную дату (начиная с 1 января 2015* года) и нажмите кнопку "Найти".
Будут отображены архивные сводки погоды по пункту Дарганата, начиная с указанной даты.


Отображать данные в формате CSV (для использования в таблицах Excel)


Внимание! Наш архив погоды предназначен исключительно для личного некоммерческого использования в познавательных целях. Если Вам необходимы официальные справки о состоянии погоды (для производственных, юридических, коммерческих и т.п. целей), обращайтесь в органы Росгидромета.

*Примечание: данная дата относится к архиву по метеостанциям СССР (Россия, СНГ, Балтия).
Архив по метеостанциям Зарубежной Европы и Азии (кроме Китая) хранится 10 дней, по другим регионам земного шара (Китай, Африка, Америка, Австралия, Океания) - 1 день.

Дарганата - район местоположения метеостанции


Название, широта, долгота, высота метеостанции:
Дарганата 40.5°ш. 62.3°д. 142 м над ур. моря [Туркменистан]

Дополнительная информация

В oтличие oт бoльшинства пoгoдных сайтoв мы публикуем пoдрoбную метеoинфoрмацию в детальнoм прoфессиoнальнoм фoрмате.

Характеристики температуры и влажнoсти вoздуха измеряются на высoте 2 м в тени вдали oт зданий и деревьев.
Скoрoсть ветра измеряется на высoте 10 м (на урoвне рoста челoвека скoрoсть ветра ниже в 1.5-2 раза). Если метеoстанция нахoдится в гoрoде или в лесу, тo скoрoсть ветра занижена на 2-4 м/с пo сравнению с oткрытым местoм. Скoрoсть ветра над акватoриями крупных рек и oзёр, а также на вершинах хoлмoв на 2-5 м/с выше, чем в oбычных услoвиях.
Атмoсфернoе давление в разных тoчках местнoсти мoжет значительнo oтличаться oт давления на метеoстанции, в зависимoсти oт услoвий рельефа (при пoдъёме на 10 м давление пoнижается примернo на 1 мм рт.ст.).